This is the latest recevied weather packets stored in our database for station/object DC1NF-7. If no packets are shown the sender has not sent any weather packets the latest 10 day(s).
| Time | Temp. | Humidity | Pressure | Rain* | Wind** | Luminosity | Snow |
|---|---|---|---|---|---|---|---|
| 1777301724 | 19.44° C | 28% | 1020.3 hPa | 0 mm | - | 366 W/m² | - |
| 1777301121 | 18.89° C | 31% | 1020.4 hPa | 0 mm | - | 432 W/m² | - |
| 1777300520 | 18.89° C | 30% | 1020.4 hPa | 0 mm | - | 366 W/m² | - |
| 1777299973 | 19.44° C | 29% | 1020.6 hPa | 0 mm | - | 431 W/m² | - |
| 1777299372 | 18.89° C | 29% | 1020.6 hPa | 0 mm | - | 400 W/m² | - |
| 1777298765 | 18.89° C | 29% | 1020.7 hPa | 0 mm | - | 421 W/m² | - |
| 1777298164 | 18.89° C | 27% | 1020.8 hPa | 0 mm | - | 458 W/m² | - |
| 1777297559 | 20.56° C | 29% | 1020.9 hPa | 0 mm | - | 386 W/m² | - |
| 1777296955 | 18.89° C | 29% | 1021 hPa | 0 mm | - | 481 W/m² | - |
| 1777296349 | 19.44° C | 30% | 1021.1 hPa | 0 mm | - | 485 W/m² | - |
| 1777295749 | 20° C | 30% | 1021.2 hPa | 0 mm | - | 553 W/m² | - |
| 1777295142 | 20° C | 29% | 1021.3 hPa | 0 mm | - | 689 W/m² | - |
| 1777294538 | 20.56° C | 30% | 1021.3 hPa | 0 mm | - | 676 W/m² | - |
| 1777293933 | 20.56° C | 30% | 1021.4 hPa | 0 mm | - | 743 W/m² | - |
| 1777293333 | 19.44° C | 31% | 1021.4 hPa | 0 mm | - | 791 W/m² | - |
| 1777292727 | 19.44° C | 32% | 1021.6 hPa | 0 mm | - | 656 W/m² | - |
| 1777292123 | 18.33° C | 32% | 1021.7 hPa | 0 mm | - | 794 W/m² | - |
| 1777291520 | 18.89° C | 32% | 1021.8 hPa | 0 mm | - | 786 W/m² | - |
| 1777290918 | 18.89° C | 32% | 1021.9 hPa | 0 mm | - | 828 W/m² | - |
| 1777290374 | 18.33° C | 33% | 1022.1 hPa | 0 mm | - | 833 W/m² | - |
| 1777289771 | 17.78° C | 34% | 1022.2 hPa | 0 mm | - | 862 W/m² | - |
| 1777289166 | 18.89° C | 32% | 1022.3 hPa | 0 mm | - | 889 W/m² | - |
| 1777288562 | 18.33° C | 33% | 1022.4 hPa | 0 mm | - | 890 W/m² | - |
| 1777287962 | 18.33° C | 34% | 1022.4 hPa | 0 mm | - | 898 W/m² | - |
| 1777287355 | 17.22° C | 35% | 1022.4 hPa | 0 mm | - | 888 W/m² | - |
* Rain latest hour (hover to see other rain measurements)
** Current wind speed in m/s (hover to see current wind gust speed)